Miscellaneous Local Product
Issued by NWS Hastings, NE

Home | Current Version | Previous Version | Text Only | Print | Product List | Glossary Off
Versions: 1 2 3 4 5 6 7 8 9 10 11 12 13 14 15 16 17 18 19 20 21 22 23 24 25 26 27 28 29 30 31 32 33 34 35 36 37 38 39 40 41 42 43 44 45 46 47 48 49 50

463
AXUS43 KGID 280602
MISGRI

GID CWA HOURLY WEATHER ROUNDUP
NATIONAL WEATHER SERVICE HASTINGS NE
100 AM CDT THU APR 28 2016

NOTE: "FAIR" INDICATES FEW OR NO CLOUDS BELOW 12,000 FEET WITH NO
SIGNIFICANT WEATHER AND/OR OBSTRUCTIONS TO VISIBILITY.

...SOUTH CENTRAL NEBRASKA...

CITY           SKY/WX    TMP DP  RH WIND       PRES   REMARKS
GRAND ISLAND   CLOUDY    41  38  89 NW20      29.74R
HASTINGS       CLOUDY    40  36  86 NW22      29.75R WCI  30
KEARNEY        MOCLDY    37  34  87 NW20G25   29.78R WCI  27
ORD            CLOUDY    40  38  93 NW18G26   29.75R WCI  31
YORK           CLOUDY    45  43  93 NW22G29   29.69R FOG
AURORA         CLOUDY    42  41  96 NW21G28   29.72R
LEXINGTON      CLEAR     36  32  87 NW15      29.83S WCI  26
HOLDREGE       CLEAR     37  32  85 NW14G21   29.80S WCI  28
HEBRON         CLOUDY    44  39  82 W14G23    29.73R

...NEBRASKA PANHANDLE...

CITY           SKY/WX    TMP DP  RH WIND       PRES   REMARKS
CHADRON        CLOUDY    33  31  92 N10       29.94R WCI  25
ALLIANCE       CLOUDY    31  29  92 NW10      29.91R WCI  22
SCOTTSBLUFF    CLOUDY    34  28  79 N12       29.93S WCI  25
SIDNEY         PTCLDY    32  28  85 N16       29.90S WCI  21

...WESTERN AND NORTH CENTRAL NEBRASKA...

CITY           SKY/WX    TMP DP  RH WIND       PRES   REMARKS
VALENTINE      CLOUDY    34  33  96 NW13      29.85R FOG     WCI  25
AINSWORTH      LGT RAIN  36  35  99 NW10      29.82R WCI  28
ONEILL         CLOUDY    42  41  95 N10       29.76S FOG
BROKEN BOW     CLOUDY    36  33  89 NW20      29.79R WCI  25
IMPERIAL       CLEAR     35  30  82 NW13      29.90R WCI  26
NORTH PLATTE   CLOUDY    33  30  88 W13       29.86R WCI  24
MCCOOK         CLEAR     36  30  79 NW10      29.88R WCI  28

...EASTERN NEBRASKA...

CITY           SKY/WX    TMP DP  RH WIND       PRES   REMARKS
NORFOLK        CLOUDY    44  41  89 N12       29.69R
SO SIOUX CITY  LGT RAIN  45  42  89 NE22G28   29.66S
TEKAMAH        CLOUDY    47  47 100 N5        29.62R
COLUMBUS       CLOUDY    48  39  71 NW13G20   29.67R
ALBION         CLOUDY    45  43  93 N9G16     29.71R FOG
OMAHA EPPLEY   CLOUDY    47  44  90 SE7       29.61S
OFFUTT AFB     MOCLDY    45  45  99 E7        29.61R
MILLARD        CLOUDY    47  43  87 CALM      29.61R
LINCOLN        CLOUDY    50  46  86 N14       29.65R
NEBRASKA CITY  CLOUDY    46  46 100 W9        29.63R
BEATRICE       CLOUDY    45  43  91 W14G23    29.66R
FALLS CITY     CLOUDY    48  42  80 SW20G26   29.64R

...NORTHERN KANSAS...

CITY           SKY/WX    TMP DP  RH WIND       PRES   REMARKS
GOODLAND       CLEAR     37  30  75 NW9       29.88R WCI  30
HILL CITY      CLEAR     40  35  83 NW8       29.87R WCI  34
NORTON         CLEAR     37  30  75 NW10      29.84S WCI  30
PHILLIPSBURG   CLEAR     41  34  75 W6G17     29.85R
SMITH CENTER   CLEAR     37  34  87 W10       29.82R WCI  30
BELOIT         CLEAR     39  34  81 W13G21    29.80R WCI  32
HAYS           CLEAR     43  32  65 NW10      29.86R
RUSSELL        CLEAR     43  37  79 NW13      29.83S
CONCORDIA      CLEAR     41  35  79 W18       29.77R
SALINA         CLEAR     47  38  71 W15       29.81S
TOPEKA         CLEAR     49  37  63 W15       29.74R



USA.gov is the U.S. government's official web portal to all federal, state and local government web resources and services.